User: anonymous   Login
Location: Unspecified
(0.0000°N, 0.0000°E)
Time: 13:52:47
(UTC+00:00)
Language:

MERIDIAN 1 - Orbit

View from above orbital plane
View from above orbital plane
View from above satellite
View from above satellite

Ground track
Ground track

The orbit data is extracted from the following two-line orbital elements,

1 29668U 06061A   17323.65932514 +.00000014 +00000-0 +00000-0 0  9990
2 29668 064.7334 074.2777 7265377 237.8609 241.7250 02.00612689079906
Epoch (UTC): 19 November 2017 15:49:25
Eccentricity: 0.7265377
inclination: 64.7334°
perigee height: 884 km
apogee height: 39471 km
right ascension of ascending node: 74.2777°
argument of perigee: 237.8609°
revolutions per day: 2.00612689
mean anomaly at epoch: 241.7250°
orbit number at epoch: 7990

The dashed part of the orbit path shows where the satellite is in the earth's shadow,  

DLR